This is the latest recevied weather packets stored in our database for station/object KB9HUO. If no packets are shown the sender has not sent any weather packets the latest 10 day(s).
| Time | Temp. | Humidity | Pressure | Rain* | Wind** | Luminosity | Snow |
|---|---|---|---|---|---|---|---|
| 1778173764 | 16.11° C | 41% | 1017.4 hPa | 0 mm | - | 831 W/m² | - |
| 1778173460 | 15.56° C | 40% | 1017.4 hPa | 0 mm | - | 831 W/m² | - |
| 1778173157 | 15° C | 37% | 1017.4 hPa | 0 mm | - | 823 W/m² | - |
| 1778172853 | 15° C | 41% | 1017.4 hPa | 0 mm | - | 824 W/m² | - |
| 1778172548 | 15° C | 38% | 1017.6 hPa | 0 mm | - | 824 W/m² | - |
| 1778172246 | 15.56° C | 38% | 1017.4 hPa | 0 mm | - | 823 W/m² | - |
| 1778171943 | 16.11° C | 40% | 1017.6 hPa | 0 mm | - | 812 W/m² | - |
| 1778171640 | 15.56° C | 38% | 1017.4 hPa | 0 mm | - | 810 W/m² | - |
| 1778171337 | 15° C | 44% | 1017.5 hPa | 0 mm | - | 806 W/m² | - |
| 1778171032 | 14.44° C | 41% | 1017.6 hPa | 0 mm | - | 803 W/m² | - |
| 1778170730 | 15° C | 36% | 1017.5 hPa | 0 mm | - | 797 W/m² | - |
| 1778170426 | 15° C | 38% | 1017.7 hPa | 0 mm | - | 789 W/m² | - |
| 1778170123 | 15.56° C | 40% | 1017.8 hPa | 0 mm | - | 784 W/m² | - |
| 1778169818 | 15.56° C | 40% | 1017.8 hPa | 0 mm | - | 778 W/m² | - |
| 1778169515 | 15° C | 43% | 1017.8 hPa | 0 mm | - | 767 W/m² | - |
| 1778169211 | 14.44° C | 39% | 1017.8 hPa | 0 mm | - | 761 W/m² | - |
| 1778168908 | 15° C | 38% | 1017.7 hPa | 0 mm | - | 754 W/m² | - |
| 1778168605 | 15° C | 41% | 1017.9 hPa | 0 mm | - | 746 W/m² | - |
| 1778168302 | 14.44° C | 37% | 1017.8 hPa | 0 mm | - | 735 W/m² | - |
| 1778167998 | 14.44° C | 37% | 1017.8 hPa | 0 mm | - | 727 W/m² | - |
| 1778167695 | 14.44° C | 38% | 1017.9 hPa | 0 mm | - | 714 W/m² | - |
| 1778167391 | 14.44° C | 40% | 1017.9 hPa | 0 mm | - | 709 W/m² | - |
| 1778167087 | 13.89° C | 40% | 1017.9 hPa | 0 mm | - | 699 W/m² | - |
| 1778166783 | 13.33° C | 41% | 1017.8 hPa | 0 mm | - | 690 W/m² | - |
| 1778166480 | 13.33° C | 41% | 1017.9 hPa | 0 mm | - | 677 W/m² | - |
* Rain latest hour (hover to see other rain measurements)
** Current wind speed in m/s (hover to see current wind gust speed)